Time,TemperatureF,DewpointF,PressureIn,WindDirection,WindDirectionDegrees,WindSpeedMPH,WindSpeedGustMPH,Humidity,HourlyPrecipIn,Conditions,Clouds,dailyrainin,SoftwareType,DateUTC
2013-05-17 00:00:00,63.9,55.0,30.02,SSE,162,0.0,0.0,73,0.00,,,0.00,weatherlink.com 1.10,2013-05-17 04:00:00,
2013-05-17 00:14:00,63.6,55.0,30.02,SSE,163,0.0,0.0,74,0.00,,,0.00,weatherlink.com 1.10,2013-05-17 04:14:00,
2013-05-17 00:29:00,63.2,55.0,30.02,SSE,163,0.0,0.0,75,0.00,,,0.00,weatherlink.com 1.10,2013-05-17 04:29:00,
2013-05-17 00:44:00,63.3,55.0,30.02,SSE,163,0.0,0.0,75,0.00,,,0.00,weatherlink.com 1.10,2013-05-17 04:44:00,
2013-05-17 00:59:00,62.7,55.0,30.02,SSE,164,0.0,0.0,76,0.00,,,0.00,weatherlink.com 1.10,2013-05-17 04:59:00,
2013-05-17 01:14:00,62.4,56.0,30.01,SSE,163,0.0,0.0,79,0.00,,,0.00,weatherlink.com 1.10,2013-05-17 05:14:00,
2013-05-17 01:29:00,61.8,55.0,30.01,SSE,163,0.0,0.0,78,0.00,,,0.00,weatherlink.com 1.10,2013-05-17 05:29:00,
2013-05-17 01:44:00,61.4,55.0,30.01,SSE,164,0.0,0.0,80,0.00,,,0.00,weatherlink.com 1.10,2013-05-17 05:44:00,
2013-05-17 01:59:00,61.3,55.0,30.01,SSE,163,0.0,0.0,79,0.00,,,0.00,weatherlink.com 1.10,2013-05-17 05:59:00,
2013-05-17 02:14:00,61.0,55.0,30.01,SSE,163,0.0,0.0,80,0.00,,,0.00,weatherlink.com 1.10,2013-05-17 06:14:00,
2013-05-17 02:29:00,60.9,55.0,30.01,SSE,165,0.0,0.0,80,0.00,,,0.00,weatherlink.com 1.10,2013-05-17 06:29:00,
2013-05-17 02:45:00,60.4,55.0,30.01,SSE,165,0.0,0.0,81,0.00,,,0.00,weatherlink.com 1.10,2013-05-17 06:45:00,
2013-05-17 03:00:00,59.3,54.0,30.02,SSE,165,0.0,0.0,83,0.00,,,0.00,weatherlink.com 1.10,2013-05-17 07:00:00,
2013-05-17 03:15:00,58.0,54.0,30.02,SSE,165,0.0,0.0,86,0.00,,,0.00,weatherlink.com 1.10,2013-05-17 07:15:00,
2013-05-17 03:30:00,57.1,54.0,30.02,SSE,165,0.0,0.0,88,0.00,,,0.00,weatherlink.com 1.10,2013-05-17 07:30:00,
2013-05-17 03:45:00,57.2,54.0,30.03,SSE,165,0.0,0.0,88,0.00,,,0.00,weatherlink.com 1.10,2013-05-17 07:45:00,
2013-05-17 04:00:00,57.6,54.0,30.04,SSE,165,0.0,0.0,88,0.00,,,0.00,weatherlink.com 1.10,2013-05-17 08:00:00,
2013-05-17 04:15:00,57.8,54.0,30.04,SSE,165,0.0,0.0,87,0.00,,,0.00,weatherlink.com 1.10,2013-05-17 08:15:00,
2013-05-17 04:30:00,57.9,54.0,30.04,SSE,165,0.0,0.0,87,0.00,,,0.00,weatherlink.com 1.10,2013-05-17 08:30:00,
2013-05-17 04:45:00,58.0,54.0,30.04,SSE,165,0.0,0.0,87,0.00,,,0.00,weatherlink.com 1.10,2013-05-17 08:45:00,
2013-05-17 05:00:00,58.0,55.0,30.05,SSE,165,0.0,0.0,88,0.00,,,0.00,weatherlink.com 1.10,2013-05-17 09:00:00,
2013-05-17 05:15:00,57.9,54.0,30.05,SSE,165,0.0,0.0,88,0.00,,,0.00,weatherlink.com 1.10,2013-05-17 09:15:00,
2013-05-17 05:30:00,56.7,54.0,30.05,SSE,165,0.0,0.0,89,0.00,,,0.00,weatherlink.com 1.10,2013-05-17 09:30:00,
2013-05-17 05:45:00,56.4,54.0,30.06,SSE,165,0.0,0.0,90,0.00,,,0.00,weatherlink.com 1.10,2013-05-17 09:45:00,
2013-05-17 06:00:00,56.7,54.0,30.06,SSE,165,0.0,0.0,91,0.00,,,0.00,weatherlink.com 1.10,2013-05-17 10:00:00,
2013-05-17 06:15:00,57.5,55.0,30.07,SSE,165,0.0,0.0,90,0.00,,,0.00,weatherlink.com 1.10,2013-05-17 10:15:00,
2013-05-17 06:30:00,58.4,55.0,30.07,SSE,165,0.0,0.0,88,0.00,,,0.00,weatherlink.com 1.10,2013-05-17 10:30:00,
2013-05-17 06:45:00,59.5,55.0,30.07,SSE,165,0.0,0.0,86,0.00,,,0.00,weatherlink.com 1.10,2013-05-17 10:45:00,
2013-05-17 06:50:00,59.7,55.8,30.07,SSE,165,0.0,0.0,87,0.00,,,0.00,Wunderground v.1.15,2013-05-17 10:50:00,
2013-05-17 06:56:00,59.7,55.5,30.07,SSE,165,0.0,0.0,86,0.00,,,0.00,Wunderground v.1.15,2013-05-17 10:56:00,
2013-05-17 07:01:00,59.5,55.3,30.07,SSE,165,0.0,0.0,86,0.00,,,0.00,Wunderground v.1.15,2013-05-17 11:01:00,
2013-05-17 07:07:00,58.9,55.0,30.07,SSE,165,0.0,0.0,87,0.00,,,0.00,Wunderground v.1.15,2013-05-17 11:07:00,
2013-05-17 07:13:00,58.7,54.8,30.07,ESE,106,0.0,0.0,87,0.00,,,0.00,Wunderground v.1.15,2013-05-17 11:13:00,
2013-05-17 07:18:00,58.7,54.8,30.08,ESE,107,0.0,0.0,87,0.00,,,0.00,Wunderground v.1.15,2013-05-17 11:18:00,
2013-05-17 07:24:00,58.8,54.9,30.08,ESE,108,0.0,0.0,87,0.00,,,0.00,Wunderground v.1.15,2013-05-17 11:24:00,
2013-05-17 07:29:00,58.7,54.8,30.08,ESE,108,0.0,0.0,87,0.00,,,0.00,Wunderground v.1.15,2013-05-17 11:29:00,
2013-05-17 07:35:00,58.7,55.2,30.09,ESE,108,0.0,0.0,88,0.00,,,0.00,Wunderground v.1.15,2013-05-17 11:35:00,
2013-05-17 07:40:00,58.9,55.4,30.09,ESE,107,0.0,0.0,88,0.00,,,0.00,Wunderground v.1.15,2013-05-17 11:40:00,
2013-05-17 07:46:00,59.0,55.4,30.09,ESE,107,0.0,0.0,88,0.00,,,0.00,Wunderground v.1.15,2013-05-17 11:46:00,
2013-05-17 07:51:00,59.0,55.4,30.09,ESE,108,0.0,0.0,88,0.00,,,0.00,Wunderground v.1.15,2013-05-17 11:51:00,
2013-05-17 07:56:00,58.7,54.8,30.09,ESE,108,0.0,0.0,87,0.00,,,0.00,Wunderground v.1.15,2013-05-17 11:56:00,
2013-05-17 08:01:00,58.6,55.0,30.09,ESE,107,0.0,0.0,89,0.00,,,0.00,weatherlink.com 1.10,2013-05-17 12:01:00,
2013-05-17 08:07:00,58.7,55.2,30.09,ESE,107,0.0,0.0,88,0.00,,,0.00,Wunderground v.1.15,2013-05-17 12:07:00,
2013-05-17 08:17:00,59.0,56.0,30.10,ESE,108,0.0,0.0,89,0.00,,,0.00,weatherlink.com 1.10,2013-05-17 12:17:00,
2013-05-17 08:32:00,59.1,56.0,30.10,ESE,108,0.0,0.0,89,0.00,,,0.00,weatherlink.com 1.10,2013-05-17 12:32:00,
2013-05-17 08:47:00,60.3,57.0,30.10,ESE,107,0.0,0.0,88,0.00,,,0.00,weatherlink.com 1.10,2013-05-17 12:47:00,
2013-05-17 09:02:00,62.1,59.0,30.09,ESE,108,0.0,0.0,88,0.00,,,0.00,weatherlink.com 1.10,2013-05-17 13:02:00,
2013-05-17 09:17:00,63.9,59.0,30.10,ESE,108,0.0,0.0,83,0.00,,,0.00,weatherlink.com 1.10,2013-05-17 13:17:00,
2013-05-17 09:32:00,64.5,60.0,30.09,ESE,108,0.0,0.0,84,0.00,,,0.00,weatherlink.com 1.10,2013-05-17 13:32:00,
2013-05-17 09:47:00,65.3,60.0,30.10,ESE,108,0.0,0.0,83,0.00,,,0.00,weatherlink.com 1.10,2013-05-17 13:47:00,
2013-05-17 10:02:00,65.8,61.0,30.09,ESE,108,0.0,0.0,83,0.00,,,0.00,weatherlink.com 1.10,2013-05-17 14:02:00,
2013-05-17 10:17:00,67.3,62.0,30.09,ENE,75,0.0,0.0,82,0.00,,,0.00,weatherlink.com 1.10,2013-05-17 14:17:00,
2013-05-17 10:32:00,68.4,61.0,30.10,ENE,75,0.0,0.0,78,0.00,,,0.00,weatherlink.com 1.10,2013-05-17 14:32:00,
2013-05-17 10:47:00,70.8,63.0,30.10,ENE,70,0.0,0.0,75,0.00,,,0.00,weatherlink.com 1.10,2013-05-17 14:47:00,
2013-05-17 11:01:00,71.2,61.0,30.09,ENE,68,0.0,0.0,70,0.00,,,0.00,weatherlink.com 1.10,2013-05-17 15:01:00,
2013-05-17 11:17:00,72.2,60.0,30.09,North,349,0.0,0.0,65,0.00,,,0.00,weatherlink.com 1.10,2013-05-17 15:17:00,
2013-05-17 11:32:00,72.9,59.0,30.09,ENE,58,0.0,3.0,63,0.00,,,0.00,weatherlink.com 1.10,2013-05-17 15:32:00,
2013-05-17 11:47:00,73.1,60.0,30.09,East,97,0.0,2.0,64,0.00,,,0.00,weatherlink.com 1.10,2013-05-17 15:47:00,
2013-05-17 12:02:00,73.6,59.0,30.09,NE,54,0.0,3.0,60,0.00,,,0.00,weatherlink.com 1.10,2013-05-17 16:02:00,
2013-05-17 12:17:00,73.4,59.0,30.08,WNW,291,1.0,3.0,60,0.00,,,0.00,weatherlink.com 1.10,2013-05-17 16:17:00,
2013-05-17 12:32:00,74.5,60.0,30.08,NNW,339,1.0,2.0,60,0.00,,,0.00,weatherlink.com 1.10,2013-05-17 16:32:00,
2013-05-17 12:47:00,74.6,60.0,30.07,East,82,1.0,2.0,61,0.00,,,0.00,weatherlink.com 1.10,2013-05-17 16:47:00,
2013-05-17 13:02:00,75.8,58.0,30.06,SSE,149,1.0,5.0,55,0.00,,,0.00,weatherlink.com 1.10,2013-05-17 17:02:00,
2013-05-17 13:17:00,76.5,61.0,30.06,NNW,330,0.0,6.0,59,0.00,,,0.00,weatherlink.com 1.10,2013-05-17 17:17:00,
2013-05-17 13:32:00,76.7,58.0,30.05,West,266,0.0,3.0,53,0.00,,,0.00,weatherlink.com 1.10,2013-05-17 17:32:00,
2013-05-17 13:47:00,76.2,60.0,30.05,NNE,29,0.0,3.0,58,0.00,,,0.00,weatherlink.com 1.10,2013-05-17 17:47:00,
2013-05-17 14:03:00,77.9,59.0,30.04,East,90,1.0,4.0,52,0.00,,,0.00,weatherlink.com 1.10,2013-05-17 18:03:00,
2013-05-17 14:18:00,77.5,59.0,30.04,East,88,0.0,3.0,54,0.00,,,0.00,weatherlink.com 1.10,2013-05-17 18:18:00,
2013-05-17 14:33:00,76.3,60.0,30.03,East,99,0.0,4.0,58,0.00,,,0.00,weatherlink.com 1.10,2013-05-17 18:33:00,
2013-05-17 14:48:00,76.8,60.0,30.03,West,264,0.0,4.0,57,0.00,,,0.00,weatherlink.com 1.10,2013-05-17 18:48:00,
2013-05-17 15:03:00,77.0,58.0,30.03,ENE,63,2.0,5.0,53,0.00,,,0.00,weatherlink.com 1.10,2013-05-17 19:03:00,
2013-05-17 15:18:00,76.9,60.0,30.02,NNE,19,1.0,4.0,56,0.00,,,0.00,weatherlink.com 1.10,2013-05-17 19:18:00,
2013-05-17 15:33:00,75.3,60.0,30.02,NE,52,0.0,2.0,59,0.00,,,0.00,weatherlink.com 1.10,2013-05-17 19:33:00,
2013-05-17 15:48:00,75.5,60.0,30.02,North,353,2.0,3.0,59,0.00,,,0.00,weatherlink.com 1.10,2013-05-17 19:48:00,
2013-05-17 16:03:00,76.3,58.0,30.01,South,189,0.0,4.0,54,0.00,,,0.00,weatherlink.com 1.10,2013-05-17 20:03:00,
2013-05-17 16:18:00,76.6,57.0,30.01,SE,127,0.0,5.0,51,0.00,,,0.00,weatherlink.com 1.10,2013-05-17 20:18:00,
2013-05-17 16:33:00,76.4,54.0,30.00,NE,44,4.0,6.0,46,0.00,,,0.00,weatherlink.com 1.10,2013-05-17 20:33:00,
2013-05-17 16:48:00,76.1,53.0,30.00,West,264,0.0,5.0,45,0.00,,,0.00,weatherlink.com 1.10,2013-05-17 20:48:00,
2013-05-17 17:03:00,76.0,54.0,30.00,WNW,283,0.0,2.0,47,0.00,,,0.00,weatherlink.com 1.10,2013-05-17 21:03:00,
2013-05-17 17:18:00,76.2,54.0,30.00,ENE,74,1.0,5.0,46,0.00,,,0.00,weatherlink.com 1.10,2013-05-17 21:18:00,
2013-05-17 17:33:00,76.1,55.0,29.99,NW,324,1.0,6.0,49,0.00,,,0.00,weatherlink.com 1.10,2013-05-17 21:33:00,
2013-05-17 17:48:00,75.6,54.0,29.99,North,5,1.0,5.0,48,0.00,,,0.00,weatherlink.com 1.10,2013-05-17 21:48:00,
2013-05-17 18:03:00,75.5,54.0,30.00,North,4,0.0,1.0,48,0.00,,,0.00,weatherlink.com 1.10,2013-05-17 22:03:00,
2013-05-17 18:18:00,75.4,56.0,29.99,WNW,292,1.0,2.0,51,0.00,,,0.00,weatherlink.com 1.10,2013-05-17 22:18:00,
2013-05-17 18:24:00,75.7,55.7,29.99,SSE,167,1.0,1.0,50,0.00,,,0.00,Wunderground v.1.15,2013-05-17 22:24:00,
2013-05-17 18:30:00,75.8,56.4,29.99,South,169,0.0,1.0,51,0.00,,,0.00,Wunderground v.1.15,2013-05-17 22:30:00,
2013-05-17 18:35:00,75.6,57.8,29.99,SW,232,0.0,0.0,54,0.00,,,0.00,Wunderground v.1.15,2013-05-17 22:35:00,
2013-05-17 18:41:00,75.3,57.0,29.99,ESE,108,1.0,2.0,53,0.00,,,0.00,Wunderground v.1.15,2013-05-17 22:41:00,
2013-05-17 18:46:00,75.1,57.8,29.99,West,259,1.0,2.0,55,0.00,,,0.00,Wunderground v.1.15,2013-05-17 22:46:00,
2013-05-17 18:52:00,74.7,58.0,29.99,WSW,257,0.0,2.0,56,0.00,,,0.00,Wunderground v.1.15,2013-05-17 22:52:00,
2013-05-17 18:57:00,74.2,57.5,29.99,SE,128,0.0,1.0,56,0.00,,,0.00,Wunderground v.1.15,2013-05-17 22:57:00,
2013-05-17 19:02:00,74.1,58.4,29.99,SSE,160,1.0,8.0,58,0.00,,,0.00,Wunderground v.1.15,2013-05-17 23:02:00,
2013-05-17 19:08:00,73.9,58.2,30.00,SW,215,1.0,8.0,58,0.00,,,0.00,Wunderground v.1.15,2013-05-17 23:08:00,
2013-05-17 19:14:00,73.6,58.4,30.00,East,86,1.0,1.0,59,0.00,,,0.00,Wunderground v.1.15,2013-05-17 23:14:00,
2013-05-17 19:19:00,73.1,57.9,30.00,SE,135,0.0,2.0,59,0.00,,,0.00,Wunderground v.1.15,2013-05-17 23:19:00,
2013-05-17 19:25:00,73.1,58.4,30.00,SE,131,1.0,4.0,60,0.00,,,0.00,Wunderground v.1.15,2013-05-17 23:25:00,
2013-05-17 19:31:00,72.9,58.2,30.00,SE,146,1.0,2.0,60,0.00,,,0.00,Wunderground v.1.15,2013-05-17 23:31:00,
2013-05-17 19:37:00,72.6,58.8,30.01,SSE,148,1.0,2.0,62,0.00,,,0.00,Wunderground v.1.15,2013-05-17 23:37:00,
2013-05-17 19:42:00,72.4,58.2,30.01,SSE,152,1.0,2.0,61,0.00,,,0.00,Wunderground v.1.15,2013-05-17 23:42:00,
2013-05-17 19:48:00,72.3,58.1,30.01,SE,143,1.0,2.0,61,0.00,,,0.00,Wunderground v.1.15,2013-05-17 23:48:00,
2013-05-17 19:54:00,72.2,58.0,30.01,South,177,1.0,2.0,61,0.00,,,0.00,Wunderground v.1.15,2013-05-17 23:54:00,
2013-05-17 19:59:00,72.0,57.8,30.01,SSE,155,1.0,2.0,61,0.00,,,0.00,Wunderground v.1.15,2013-05-17 23:59:00,
2013-05-17 20:05:00,71.8,57.2,30.01,SE,132,1.0,3.0,60,0.00,,,0.00,Wunderground v.1.15,2013-05-18 00:05:00,
2013-05-17 20:10:00,71.8,56.7,30.01,SSE,149,1.0,3.0,59,0.00,,,0.00,Wunderground v.1.15,2013-05-18 00:10:00,
2013-05-17 20:15:00,71.6,56.5,30.01,SSE,156,1.0,3.0,59,0.00,,,0.00,Wunderground v.1.15,2013-05-18 00:15:00,
2013-05-17 20:20:00,71.4,56.8,30.01,SE,138,1.0,4.0,60,0.00,,,0.00,Wunderground v.1.15,2013-05-18 00:20:00,
2013-05-17 20:26:00,71.2,56.1,30.01,SE,145,1.0,3.0,59,0.00,,,0.00,Wunderground v.1.15,2013-05-18 00:26:00,
2013-05-17 20:31:00,71.1,56.0,30.01,NE,49,1.0,3.0,59,0.00,,,0.00,Wunderground v.1.15,2013-05-18 00:31:00,
2013-05-17 20:37:00,70.9,55.9,30.01,SE,141,2.0,3.0,59,0.00,,,0.00,Wunderground v.1.15,2013-05-18 00:37:00,
2013-05-17 20:42:00,70.8,56.2,30.02,SE,135,2.0,3.0,60,0.00,,,0.00,Wunderground v.1.15,2013-05-18 00:42:00,
2013-05-17 20:48:00,70.6,56.0,30.02,SSE,149,1.0,3.0,60,0.00,,,0.00,Wunderground v.1.15,2013-05-18 00:48:00,
2013-05-17 20:53:00,70.4,55.8,30.02,SE,136,1.0,3.0,60,0.00,,,0.00,Wunderground v.1.15,2013-05-18 00:53:00,
2013-05-17 20:59:00,70.3,56.7,30.02,SSE,149,1.0,3.0,62,0.00,,,0.00,Wunderground v.1.15,2013-05-18 00:59:00,
2013-05-17 21:04:00,70.1,56.0,30.02,ENE,74,1.0,4.0,61,0.00,,,0.00,Wunderground v.1.15,2013-05-18 01:04:00,
2013-05-17 21:10:00,70.0,55.9,30.02,SE,142,1.0,1.0,61,0.00,,,0.00,Wunderground v.1.15,2013-05-18 01:10:00,
2013-05-17 21:15:00,69.8,56.2,30.02,SSE,155,1.0,1.0,62,0.00,,,0.00,Wunderground v.1.15,2013-05-18 01:15:00,
2013-05-17 21:20:00,69.6,56.0,30.02,NW,326,0.0,0.0,62,0.00,,,0.00,Wunderground v.1.15,2013-05-18 01:20:00,
2013-05-17 21:26:00,69.3,55.3,30.02,NW,326,0.0,0.0,61,0.00,,,0.00,Wunderground v.1.15,2013-05-18 01:26:00,
2013-05-17 21:31:00,69.0,55.4,30.03,NW,326,0.0,0.0,62,0.00,,,0.00,Wunderground v.1.15,2013-05-18 01:31:00,
2013-05-17 21:36:00,68.8,55.2,30.03,West,266,0.0,0.0,62,0.00,,,0.00,Wunderground v.1.15,2013-05-18 01:36:00,
2013-05-17 21:42:00,68.5,55.4,30.03,SSW,195,0.0,4.0,63,0.00,,,0.00,Wunderground v.1.15,2013-05-18 01:42:00,
2013-05-17 21:48:00,68.3,55.6,30.03,SW,219,0.0,4.0,64,0.00,,,0.00,Wunderground v.1.15,2013-05-18 01:48:00,
2013-05-17 21:53:00,68.2,55.1,30.03,NW,326,0.0,4.0,63,0.00,,,0.00,Wunderground v.1.15,2013-05-18 01:53:00,
2013-05-17 21:59:00,68.0,53.6,30.04,NW,324,0.0,4.0,60,0.00,,,0.00,Wunderground v.1.15,2013-05-18 01:59:00,
2013-05-17 22:04:00,67.9,53.5,30.04,NW,324,0.0,0.0,60,0.00,,,0.00,Wunderground v.1.15,2013-05-18 02:04:00,
2013-05-17 22:09:00,67.8,52.5,30.04,NW,325,0.0,0.0,58,0.00,,,0.00,Wunderground v.1.15,2013-05-18 02:09:00,
2013-05-17 22:15:00,67.7,52.9,30.04,NW,325,0.0,0.0,59,0.00,,,0.00,Wunderground v.1.15,2013-05-18 02:15:00,
2013-05-17 22:20:00,67.5,52.2,30.05,NW,324,0.0,0.0,58,0.00,,,0.00,Wunderground v.1.15,2013-05-18 02:20:00,
2013-05-17 22:26:00,67.3,52.5,30.05,NW,324,0.0,1.0,59,0.00,,,0.00,Wunderground v.1.15,2013-05-18 02:26:00,
2013-05-17 22:31:00,67.2,51.4,30.05,NW,325,0.0,0.0,57,0.00,,,0.00,Wunderground v.1.15,2013-05-18 02:31:00,
2013-05-17 22:36:00,67.1,51.8,30.05,WNW,288,0.0,0.0,58,0.00,,,0.00,Wunderground v.1.15,2013-05-18 02:36:00,
2013-05-17 22:42:00,66.9,52.1,30.05,SSW,200,0.0,1.0,59,0.00,,,0.00,Wunderground v.1.15,2013-05-18 02:42:00,
2013-05-17 22:47:00,66.9,52.1,30.06,SSW,198,1.0,1.0,59,0.00,,,0.00,Wunderground v.1.15,2013-05-18 02:47:00,
2013-05-17 22:53:00,66.7,52.4,30.06,SSW,198,0.0,1.0,60,0.00,,,0.00,Wunderground v.1.15,2013-05-18 02:53:00,
2013-05-17 22:58:00,66.6,52.3,30.06,SSW,198,0.0,1.0,60,0.00,,,0.00,Wunderground v.1.15,2013-05-18 02:58:00,
2013-05-17 23:04:00,66.3,52.0,30.06,SE,125,0.0,2.0,60,0.00,,,0.00,Wunderground v.1.15,2013-05-18 03:04:00,
2013-05-17 23:09:00,66.3,52.4,30.06,SSE,155,0.0,2.0,61,0.00,,,0.00,Wunderground v.1.15,2013-05-18 03:09:00,
2013-05-17 23:14:00,66.2,52.8,30.06,SSE,165,0.0,0.0,62,0.00,,,0.00,Wunderground v.1.15,2013-05-18 03:14:00,
2013-05-17 23:20:00,66.2,52.8,30.07,WNW,284,0.0,0.0,62,0.00,,,0.00,Wunderground v.1.15,2013-05-18 03:20:00,
2013-05-17 23:25:00,66.1,53.1,30.07,WNW,283,0.0,0.0,63,0.00,,,0.00,Wunderground v.1.15,2013-05-18 03:25:00,
2013-05-17 23:31:00,65.9,52.9,30.07,WNW,283,0.0,1.0,63,0.00,,,0.00,Wunderground v.1.15,2013-05-18 03:31:00,
2013-05-17 23:37:00,65.8,53.3,30.06,SW,228,1.0,1.0,64,0.00,,,0.00,Wunderground v.1.15,2013-05-18 03:37:00,
2013-05-17 23:42:00,65.9,52.9,30.07,SW,229,1.0,1.0,63,0.00,,,0.00,Wunderground v.1.15,2013-05-18 03:42:00,
2013-05-17 23:48:00,66.0,53.0,30.06,SSW,211,0.0,1.0,63,0.00,,,0.00,Wunderground v.1.15,2013-05-18 03:48:00,
2013-05-17 23:53:00,66.0,53.0,30.06,SSW,211,0.0,1.0,63,0.00,,,0.00,Wunderground v.1.15,2013-05-18 03:53:00,
2013-05-17 23:58:00,66.1,53.1,30.06,NW,319,0.0,1.0,63,0.00,,,0.00,Wunderground v.1.15,2013-05-18 03:58:00,